Location: Alsip
(41.6689°N, 87.7387°W)
Time: 15:16:28
(UTC+00:00)

Aureole 1 Rocket - Pass Details

Date: 14 July 2020
Orbit: 377 x 1380 km, 73.9° (Epoch: 12 August)

Event Time Altitude Azimuth Distance (km) Brightness Sun altitude
Exits shadow 07:33:52 51° 148° (SSE) 863 3.5 -22.9°
Maximum altitude 07:34:43 60° 104° (ESE) 813 3.6 -22.8°
Drops below altitude 10° 07:40:21 10° 26° (NNE) 2,550 7.3 -22.4°
Sets 07:43:15 0° 23° (NNE) 3,673 8.5 -22.1°
